| time (UTC) | temp C | wind direction | speed KPH | gust KPH | rain 1hr cm | rain 24hr cm | rain mn cm | humidity % | barometer mb |
| 20260902151545 | 26 | 224 | 6.4 | 14.5 | 0.00 | 0.00 | 0.00 | 44 | 1020.6 |
| 20260902151044 | 25 | 171 | 8.0 | 16.1 | 0.00 | 0.00 | 0.00 | 44 | 1020.5 |
| 20260902150543 | 25 | 180 | 9.7 | 16.1 | 0.00 | 0.00 | 0.00 | 44 | 1020.5 |
| 20260902150042 | 25 | 144 | 4.8 | 12.9 | 0.00 | 0.00 | 0.00 | 45 | 1020.5 |
| 20260902145540 | 25 | 218 | 6.4 | 12.9 | 0.00 | 0.00 | 0.00 | 45 | 1020.5 |
| 20260902145038 | 25 | 159 | 6.4 | 14.5 | 0.00 | 0.00 | 0.00 | 45 | 1020.5 |
| 20260902144538 | 25 | 194 | 6.4 | 14.5 | 0.00 | 0.00 | 0.00 | 45 | 1020.4 |
| 20260902144035 | 24 | 147 | 8.0 | 14.5 | 0.00 | 0.00 | 0.00 | 44 | 1020.4 |
| 20260902143534 | 24 | 161 | 4.8 | 14.5 | 0.00 | 0.00 | 0.00 | 45 | 1020.4 |
| 20260902143032 | 24 | 154 | 6.4 | 11.3 | 0.00 | 0.00 | 0.00 | 46 | 1020.4 |
| 20260902142532 | 24 | 161 | 1.6 | 11.3 | 0.00 | 0.00 | 0.00 | 46 | 1020.3 |
| 20260902142030 | 23 | 184 | 1.6 | 12.9 | 0.00 | 0.00 | 0.00 | 47 | 1020.3 |
| 20260902141529 | 23 | 166 | 8.0 | 12.9 | 0.00 | 0.00 | 0.00 | 46 | 1020.3 |
| 20260902141026 | 23 | 151 | 3.2 | 9.7 | 0.00 | 0.00 | 0.00 | 47 | 1020.1 |
| 20260902140526 | 23 | 188 | 3.2 | 9.7 | 0.00 | 0.00 | 0.00 | 48 | 1020.2 |
| 20260902140032 | 23 | 177 | 3.2 | 9.7 | 0.00 | 0.00 | 0.00 | 48 | 1020.1 |
| 20260902135524 | 23 | 209 | 1.6 | 6.4 | 0.00 | 0.00 | 0.00 | 48 | 1020.1 |
| 20260902135023 | 23 | 209 | 1.6 | 6.4 | 0.00 | 0.00 | 0.00 | 49 | 1020.0 |
| 20260902134523 | 22 | 209 | 1.6 | 8.0 | 0.00 | 0.00 | 0.00 | 50 | 1020.0 |
| 20260902134021 | 22 | 209 | 3.2 | 8.0 | 0.00 | 0.00 | 0.00 | 50 | 1019.9 |
| 20260902133521 | 22 | 209 | 0.0 | 3.2 | 0.00 | 0.00 | 0.00 | 51 | 1019.9 |
| 20260902133020 | 21 | 209 | 0.0 | 3.2 | 0.00 | 0.00 | 0.00 | 52 | 1019.8 |
| 20260902132526 | 21 | 209 | 0.0 | 1.6 | 0.00 | 0.00 | 0.00 | 52 | 1019.8 |
| 20260902132019 | 21 | 209 | 0.0 | 1.6 | 0.00 | 0.00 | 0.00 | 51 | 1019.8 |
| 20260902131528 | 21 | 209 | 0.0 | 3.2 | 0.00 | 0.00 | 0.00 | 53 | 1019.7 |
| 20260902131017 | 21 | 209 | 0.0 | 3.2 | 0.00 | 0.00 | 0.00 | 52 | 1019.7 |
| 20260902130516 | 21 | 209 | 1.6 | 3.2 | 0.00 | 0.00 | 0.00 | 51 | 1019.6 |
| 20260902130015 | 21 | 209 | 0.0 | 1.6 | 0.00 | 0.00 | 0.00 | 52 | 1019.5 |
| 20260902125517 | 21 | 209 | 0.0 | 0.0 | 0.00 | 0.00 | 0.00 | 51 | 1019.5 |
| 20260902125015 | 21 | 209 | 0.0 | 3.2 | 0.00 | 0.00 | 0.00 | 51 | 1019.5 |
| 20260902124525 | 21 | 209 | 0.0 | 3.2 | 0.00 | 0.00 | 0.00 | 49 | 1019.4 |
| 20260902124013 | 21 | 209 | 0.0 | 1.6 | 0.00 | 0.00 | 0.00 | 50 | 1019.4 |
| 20260902123511 | 21 | 209 | 0.0 | 3.2 | 0.00 | 0.00 | 0.00 | 50 | 1019.3 |
| 20260902123010 | 21 | 209 | 0.0 | 3.2 | 0.00 | 0.00 | 0.00 | 51 | 1019.3 |
| 20260902122512 | 21 | 209 | 0.0 | 0.0 | 0.00 | 0.00 | 0.00 | 51 | 1019.3 |
| 20260902122008 | 21 | 209 | 0.0 | 0.0 | 0.00 | 0.00 | 0.00 | 50 | 1019.2 |
| 20260902121508 | 21 | 209 | 0.0 | 8.0 | 0.00 | 0.00 | 0.00 | 49 | 1019.2 |
| 20260902121008 | 22 | 209 | 0.0 | 8.0 | 0.00 | 0.00 | 0.00 | 48 | 1019.3 |
| 20260902120507 | 21 | 209 | 0.0 | 6.4 | 0.00 | 0.00 | 0.00 | 49 | 1019.2 |
| 20260902120007 | 21 | 209 | 0.0 | 3.2 | 0.00 | 0.00 | 0.00 | 49 | 1019.2 |
| 20260902115506 | 21 | 209 | 0.0 | 3.2 | 0.00 | 0.00 | 0.00 | 50 | 1019.2 |
| 20260902115006 | 21 | 209 | 0.0 | 1.6 | 0.00 | 0.00 | 0.00 | 50 | 1019.2 |
| 20260902114515 | 21 | 209 | 0.0 | 3.2 | 0.00 | 0.00 | 0.00 | 50 | 1019.1 |
| 20260902114005 | 21 | 209 | 0.0 | 3.2 | 0.00 | 0.00 | 0.00 | 50 | 1019.1 |
| 20260902113504 | 21 | 209 | 0.0 | 3.2 | 0.00 | 0.00 | 0.00 | 50 | 1019.0 |
| 20260902113002 | 22 | 209 | 0.0 | 1.6 | 0.00 | 0.00 | 0.00 | 50 | 1019.0 |
| 20260902112502 | 21 | 209 | 0.0 | 1.6 | 0.00 | 0.00 | 0.00 | 50 | 1019.0 |
| 20260902112004 | 21 | 209 | 0.0 | 3.2 | 0.00 | 0.00 | 0.00 | 51 | 1018.9 |
| 20260902111502 | 21 | 209 | 0.0 | 3.2 | 0.00 | 0.00 | 0.00 | 50 | 1019.0 |
| 20260902111001 | 22 | 209 | 0.0 | 1.6 | 0.00 | 0.00 | 0.00 | 50 | 1019.0 |
| 20260902110500 | 22 | 209 | 0.0 | 1.6 | 0.00 | 0.00 | 0.00 | 50 | 1019.0 |
| 20260902110001 | 22 | 209 | 0.0 | 3.2 | 0.00 | 0.00 | 0.00 | 50 | 1019.0 |
| 20260902105604 | 22 | 209 | 0.0 | 3.2 | 0.00 | 0.00 | 0.00 | 51 | 1018.9 |
| 20260902105100 | 22 | 209 | 0.0 | 1.6 | 0.00 | 0.00 | 0.00 | 50 | 1019.0 |
| 20260902104603 | 22 | 209 | 0.0 | 1.6 | 0.00 | 0.00 | 0.00 | 50 | 1019.0 |
| 20260902104059 | 22 | 209 | 0.0 | 1.6 | 0.00 | 0.00 | 0.00 | 50 | 1019.0 |
| 20260902103604 | 22 | 209 | 0.0 | 1.6 | 0.00 | 0.00 | 0.00 | 49 | 1019.1 |
| 20260902103118 | 22 | 209 | 0.0 | 1.6 | 0.00 | 0.00 | 0.00 | 49 | 1019.1 |
| 20260902102558 | 22 | 209 | 0.0 | 3.2 | 0.00 | 0.00 | 0.00 | 48 | 1019.1 |
| 20260902102058 | 22 | 209 | 0.0 | 3.2 | 0.00 | 0.00 | 0.00 | 48 | 1019.1 |
| 20260902101557 | 22 | 209 | 0.0 | 1.6 | 0.00 | 0.00 | 0.00 | 48 | 1019.0 |
| 20260902101057 | 22 | 209 | 0.0 | 0.0 | 0.00 | 0.00 | 0.00 | 48 | 1019.0 |
| 20260902100557 | 22 | 209 | 0.0 | 0.0 | 0.00 | 0.00 | 0.00 | 48 | 1018.9 |
| 20260902100057 | 22 | 209 | 0.0 | 0.0 | 0.00 | 0.00 | 0.00 | 47 | 1018.9 |
| 20260902095559 | 22 | 209 | 0.0 | 0.0 | 0.00 | 0.00 | 0.00 | 47 | 1019.0 |
| 20260902095056 | 22 | 209 | 0.0 | 3.2 | 0.00 | 0.00 | 0.00 | 48 | 1019.0 |
| 20260902094600 | 22 | 209 | 0.0 | 3.2 | 0.00 | 0.00 | 0.00 | 49 | 1018.9 |
| 20260902094056 | 22 | 209 | 0.0 | 1.6 | 0.00 | 0.00 | 0.00 | 49 | 1019.0 |
| 20260902093555 | 22 | 209 | 0.0 | 0.0 | 0.00 | 0.00 | 0.00 | 48 | 1018.9 |
| 20260902093103 | 22 | 209 | 0.0 | 0.0 | 0.00 | 0.00 | 0.00 | 48 | 1018.9 |
| 20260902092554 | 22 | 209 | 0.0 | 0.0 | 0.00 | 0.00 | 0.00 | 47 | 1018.9 |
| 20260902092057 | 22 | 209 | 0.0 | 0.0 | 0.00 | 0.00 | 0.00 | 47 | 1018.8 |
| 20260902091556 | 22 | 209 | 0.0 | 0.0 | 0.00 | 0.00 | 0.00 | 47 | 1018.9 |
| 20260902091055 | 22 | 209 | 0.0 | 0.0 | 0.00 | 0.00 | 0.00 | 46 | 1018.8 |
| 20260902090556 | 23 | 209 | 0.0 | 1.6 | 0.00 | 0.00 | 0.00 | 46 | 1018.8 |
| 20260902090059 | 23 | 209 | 0.0 | 1.6 | 0.00 | 0.00 | 0.00 | 46 | 1018.8 |
| 20260902085554 | 23 | 209 | 0.0 | 0.0 | 0.00 | 0.00 | 0.00 | 46 | 1018.9 |
| 20260902085050 | 23 | 209 | 0.0 | 1.6 | 0.00 | 0.00 | 0.00 | 45 | 1019.0 |
| 20260902084550 | 23 | 209 | 0.0 | 1.6 | 0.00 | 0.00 | 0.00 | 45 | 1019.0 |
| 20260902084051 | 23 | 209 | 0.0 | 0.0 | 0.00 | 0.00 | 0.00 | 45 | 1018.9 |
| 20260902083549 | 23 | 209 | 0.0 | 0.0 | 0.00 | 0.00 | 0.00 | 44 | 1019.0 |
| 20260902083047 | 23 | 209 | 0.0 | 0.0 | 0.00 | 0.00 | 0.00 | 45 | 1019.0 |
| 20260902082547 | 23 | 209 | 0.0 | 1.6 | 0.00 | 0.00 | 0.00 | 44 | 1019.0 |
| 20260902082047 | 24 | 209 | 0.0 | 1.6 | 0.00 | 0.00 | 0.00 | 43 | 1019.0 |
| 20260902081546 | 24 | 209 | 0.0 | 3.2 | 0.00 | 0.00 | 0.00 | 42 | 1019.1 |
| 20260902081045 | 24 | 209 | 0.0 | 3.2 | 0.00 | 0.00 | 0.00 | 44 | 1019.1 |
| 20260902080545 | 24 | 209 | 0.0 | 3.2 | 0.00 | 0.00 | 0.00 | 45 | 1019.1 |
| 20260902080045 | 24 | 209 | 0.0 | 1.6 | 0.00 | 0.00 | 0.00 | 46 | 1019.1 |
| 20260902075545 | 24 | 209 | 0.0 | 3.2 | 0.00 | 0.00 | 0.00 | 46 | 1019.1 |
| 20260902075044 | 24 | 229 | 0.0 | 3.2 | 0.00 | 0.00 | 0.00 | 46 | 1019.1 |
| 20260902074555 | 24 | 102 | 0.0 | 1.6 | 0.00 | 0.00 | 0.00 | 43 | 1019.0 |
| 20260902074042 | 24 | 102 | 0.0 | 1.6 | 0.00 | 0.00 | 0.00 | 45 | 1019.2 |
| 20260902073541 | 24 | 102 | 0.0 | 1.6 | 0.00 | 0.00 | 0.00 | 44 | 1019.2 |
| 20260902073042 | 24 | 102 | 0.0 | 1.6 | 0.00 | 0.00 | 0.00 | 43 | 1019.2 |
| 20260902072543 | 25 | 102 | 0.0 | 1.6 | 0.00 | 0.00 | 0.00 | 43 | 1019.2 |
| 20260902072040 | 25 | 102 | 0.0 | 1.6 | 0.00 | 0.00 | 0.00 | 42 | 1019.3 |
| 20260902071540 | 25 | 102 | 0.0 | 1.6 | 0.00 | 0.00 | 0.00 | 42 | 1019.2 |
| 20260902071040 | 25 | 102 | 0.0 | 1.6 | 0.00 | 0.00 | 0.00 | 42 | 1019.3 |
| 20260902070539 | 25 | 102 | 0.0 | 6.4 | 0.00 | 0.00 | 0.00 | 42 | 1019.2 |
| 20260902070039 | 25 | 102 | 0.0 | 6.4 | 0.00 | 0.00 | 0.00 | 42 | 1019.1 |
| 20260902065538 | 25 | 259 | 0.0 | 1.6 | 0.00 | 0.00 | 0.00 | 43 | 1019.1 |
| 20260902065042 | 25 | 259 | 0.0 | 1.6 | 0.00 | 0.00 | 0.00 | 44 | 1019.1 |
| 20260902064540 | 25 | 259 | 0.0 | 1.6 | 0.00 | 0.00 | 0.00 | 44 | 1019.1 |
| 20260902064038 | 25 | 259 | 0.0 | 1.6 | 0.00 | 0.00 | 0.00 | 44 | 1019.0 |
| 20260902063536 | 25 | 259 | 0.0 | 0.0 | 0.00 | 0.00 | 0.00 | 44 | 1019.0 |
| 20260902063036 | 25 | 259 | 0.0 | 1.6 | 0.00 | 0.00 | 0.00 | 43 | 1019.0 |
| 20260902062534 | 26 | 259 | 0.0 | 3.2 | 0.00 | 0.00 | 0.00 | 41 | 1019.0 |
| 20260902062033 | 26 | 259 | 0.0 | 3.2 | 0.00 | 0.00 | 0.00 | 41 | 1019.1 |
| 20260902061541 | 25 | 259 | 0.0 | 1.6 | 0.00 | 0.00 | 0.00 | 43 | 1019.1 |
| 20260902061033 | 25 | 259 | 0.0 | 0.0 | 0.00 | 0.00 | 0.00 | 42 | 1019.1 |
| 20260902060530 | 26 | 259 | 0.0 | 3.2 | 0.00 | 0.00 | 0.00 | 41 | 1019.1 |
| 20260902060045 | 26 | 259 | 0.0 | 3.2 | 0.00 | 0.00 | 0.00 | 40 | 1019.2 |
| 20260902055530 | 26 | 259 | 0.0 | 3.2 | 0.00 | 0.00 | 0.00 | 40 | 1019.2 |
| 20260902055029 | 26 | 259 | 0.0 | 3.2 | 0.00 | 0.00 | 0.00 | 39 | 1019.2 |
| 20260902054538 | 26 | 259 | 0.0 | 3.2 | 0.00 | 0.00 | 0.00 | 39 | 1019.1 |
| 20260902054034 | 26 | 259 | 0.0 | 3.2 | 0.00 | 0.00 | 0.00 | 39 | 1019.1 |
| 20260902053528 | 26 | 247 | 0.0 | 1.6 | 0.00 | 0.00 | 0.00 | 41 | 1019.2 |
| 20260902053028 | 26 | 247 | 0.0 | 0.0 | 0.00 | 0.00 | 0.00 | 41 | 1019.1 |
| 20260902052527 | 26 | 247 | 0.0 | 0.0 | 0.00 | 0.00 | 0.00 | 40 | 1019.1 |
| 20260902052033 | 26 | 247 | 0.0 | 0.0 | 0.00 | 0.00 | 0.00 | 39 | 1019.2 |
| 20260902051527 | 26 | 247 | 0.0 | 1.6 | 0.00 | 0.00 | 0.00 | 41 | 1019.1 |
| 20260902051033 | 27 | 247 | 0.0 | 1.6 | 0.00 | 0.00 | 0.00 | 40 | 1019.2 |
| 20260902050528 | 27 | 247 | 0.0 | 1.6 | 0.00 | 0.00 | 0.00 | 41 | 1019.1 |
| 20260902050028 | 27 | 247 | 0.0 | 1.6 | 0.00 | 0.00 | 0.00 | 41 | 1019.2 |
| 20260902045527 | 27 | 247 | 0.0 | 6.4 | 0.00 | 0.00 | 0.00 | 41 | 1019.2 |
| 20260902045030 | 27 | 247 | 1.6 | 6.4 | 0.00 | 0.00 | 0.00 | 41 | 1019.2 |
| 20260902044527 | 26 | 247 | 0.0 | 6.4 | 0.00 | 0.00 | 0.00 | 42 | 1019.2 |
| 20260902044027 | 26 | 247 | 0.0 | 1.6 | 0.00 | 0.00 | 0.00 | 38 | 1019.1 |
| 20260902043527 | 26 | 247 | 0.0 | 1.6 | 0.00 | 0.00 | 0.00 | 40 | 1019.0 |
| 20260902043026 | 26 | 247 | 0.0 | 0.0 | 0.00 | 0.00 | 0.00 | 40 | 1019.0 |
| 20260902042526 | 26 | 247 | 0.0 | 0.0 | 0.00 | 0.00 | 0.00 | 39 | 1018.9 |
| 20260902042027 | 26 | 247 | 0.0 | 0.0 | 0.00 | 0.00 | 0.00 | 39 | 1018.9 |
| 20260902041533 | 26 | 247 | 0.0 | 0.0 | 0.00 | 0.00 | 0.00 | 38 | 1018.9 |
| 20260902041025 | 26 | 247 | 0.0 | 0.0 | 0.00 | 0.00 | 0.00 | 39 | 1018.9 |
| 20260902040526 | 26 | 247 | 0.0 | 0.0 | 0.00 | 0.00 | 0.00 | 38 | 1018.8 |
| 20260902040026 | 27 | 247 | 0.0 | 0.0 | 0.00 | 0.00 | 0.00 | 38 | 1018.9 |
| 20260902035525 | 27 | 247 | 0.0 | 0.0 | 0.00 | 0.00 | 0.00 | 37 | 1018.8 |
| 20260902035027 | 27 | 247 | 0.0 | 1.6 | 0.00 | 0.00 | 0.00 | 37 | 1018.9 |
| 20260902034527 | 27 | 247 | 0.0 | 1.6 | 0.00 | 0.00 | 0.00 | 36 | 1018.8 |
| 20260902034027 | 27 | 247 | 0.0 | 3.2 | 0.00 | 0.00 | 0.00 | 37 | 1018.7 |
| 20260902033525 | 27 | 247 | 0.0 | 3.2 | 0.00 | 0.00 | 0.00 | 38 | 1018.7 |
| 20260902033025 | 27 | 247 | 0.0 | 3.2 | 0.00 | 0.00 | 0.00 | 39 | 1018.6 |
| 20260902032524 | 27 | 247 | 0.0 | 0.0 | 0.00 | 0.00 | 0.00 | 39 | 1018.6 |
| 20260902032023 | 27 | 247 | 0.0 | 1.6 | 0.00 | 0.00 | 0.00 | 39 | 1018.4 |
| 20260902031522 | 28 | 247 | 0.0 | 3.2 | 0.00 | 0.00 | 0.00 | 39 | 1018.4 |
| 20260902031021 | 28 | 247 | 0.0 | 3.2 | 0.00 | 0.00 | 0.00 | 39 | 1018.3 |
| 20260902030520 | 28 | 247 | 0.0 | 1.6 | 0.00 | 0.00 | 0.00 | 40 | 1018.2 |
| 20260902030020 | 28 | 247 | 0.0 | 0.0 | 0.00 | 0.00 | 0.00 | 39 | 1018.2 |
| 20260902025520 | 28 | 247 | 0.0 | 0.0 | 0.00 | 0.00 | 0.00 | 38 | 1018.1 |
| 20260902025020 | 28 | 247 | 0.0 | 0.0 | 0.00 | 0.00 | 0.00 | 37 | 1018.0 |
| 20260902024521 | 28 | 247 | 0.0 | 0.0 | 0.00 | 0.00 | 0.00 | 37 | 1017.9 |
| 20260902024021 | 28 | 247 | 0.0 | 0.0 | 0.00 | 0.00 | 0.00 | 37 | 1017.8 |
| 20260902023519 | 28 | 247 | 0.0 | 0.0 | 0.00 | 0.00 | 0.00 | 36 | 1017.7 |
| 20260902023019 | 29 | 247 | 0.0 | 0.0 | 0.00 | 0.00 | 0.00 | 35 | 1017.7 |
| 20260902022520 | 29 | 247 | 0.0 | 0.0 | 0.00 | 0.00 | 0.00 | 34 | 1017.6 |
| 20260902022020 | 29 | 247 | 0.0 | 0.0 | 0.00 | 0.00 | 0.00 | 34 | 1017.6 |
| 20260902021519 | 29 | 247 | 0.0 | 0.0 | 0.00 | 0.00 | 0.00 | 34 | 1017.5 |
| 20260902021019 | 29 | 247 | 0.0 | 0.0 | 0.00 | 0.00 | 0.00 | 34 | 1017.4 |
| 20260902020520 | 30 | 247 | 0.0 | 0.0 | 0.00 | 0.00 | 0.00 | 33 | 1017.4 |
| 20260902020019 | 30 | 247 | 0.0 | 1.6 | 0.00 | 0.00 | 0.00 | 32 | 1017.3 |
| 20260902015519 | 30 | 247 | 0.0 | 1.6 | 0.00 | 0.00 | 0.00 | 32 | 1017.3 |
| 20260902015019 | 30 | 247 | 0.0 | 1.6 | 0.00 | 0.00 | 0.00 | 31 | 1017.3 |
| 20260902014523 | 30 | 247 | 0.0 | 0.0 | 0.00 | 0.00 | 0.00 | 31 | 1017.3 |
| 20260902014017 | 30 | 247 | 0.0 | 1.6 | 0.00 | 0.00 | 0.00 | 31 | 1017.2 |
| 20260902013518 | 30 | 247 | 0.0 | 8.0 | 0.00 | 0.00 | 0.00 | 30 | 1017.2 |
| 20260902013018 | 30 | 247 | 1.6 | 8.0 | 0.00 | 0.00 | 0.00 | 30 | 1017.1 |
| 20260902012518 | 30 | 251 | 1.6 | 6.4 | 0.00 | 0.00 | 0.00 | 29 | 1017.1 |
| 20260902012017 | 30 | 238 | 0.0 | 8.0 | 0.00 | 0.00 | 0.00 | 29 | 1017.1 |
| 20260902011518 | 30 | 198 | 3.2 | 8.0 | 0.00 | 0.00 | 0.00 | 29 | 1017.1 |
| 20260902011018 | 31 | 240 | 0.0 | 6.4 | 0.00 | 0.00 | 0.00 | 30 | 1017.1 |
| 20260902010517 | 31 | 264 | 1.6 | 4.8 | 0.00 | 0.00 | 0.00 | 29 | 1017.1 |
| 20260902010029 | 31 | 222 | 0.0 | 6.4 | 0.00 | 0.00 | 0.00 | 28 | 1017.1 |
| 20260902005619 | 31 | 219 | 0.0 | 9.7 | 0.00 | 0.00 | 0.00 | 28 | 1017.1 |
| 20260902005017 | 31 | 261 | 4.8 | 11.3 | 0.00 | 0.00 | 0.00 | 28 | 1017.1 |
| 20260902004517 | 31 | 264 | 6.4 | 12.9 | 0.00 | 0.00 | 0.00 | 28 | 1017.1 |
| 20260902004015 | 31 | 301 | 4.8 | 9.7 | 0.00 | 0.00 | 0.00 | 29 | 1017.1 |
| 20260902003519 | 31 | 165 | 0.0 | 12.9 | 0.00 | 0.00 | 0.00 | 29 | 1017.1 |
| 20260902003017 | 31 | 226 | 1.6 | 12.9 | 0.00 | 0.00 | 0.00 | 28 | 1017.1 |
| 20260902002515 | 31 | 246 | 4.8 | 12.9 | 0.00 | 0.00 | 0.00 | 28 | 1017.1 |
| 20260902002014 | 32 | 201 | 1.6 | 12.9 | 0.00 | 0.00 | 0.00 | 28 | 1017.2 |
| 20260902001517 | 32 | 237 | 1.6 | 14.5 | 0.00 | 0.00 | 0.00 | 28 | 1017.3 |
| 20260902001013 | 32 | 204 | 8.0 | 14.5 | 0.00 | 0.00 | 0.00 | 27 | 1017.4 |
| 20260902000513 | 32 | 211 | 6.4 | 14.5 | 0.00 | 0.00 | 0.00 | 27 | 1017.4 |
| 20260902000020 | 32 | 294 | 8.0 | 14.5 | 0.00 | 0.00 | 0.00 | 27 | 1017.3 |
| 20260901235513 | 32 | 210 | 1.6 | 12.9 | 0.00 | 0.00 | 0.00 | 28 | 1017.4 |
| 20260901235012 | 32 | 254 | 8.0 | 14.5 | 0.00 | 0.00 | 0.00 | 28 | 1017.4 |
| 20260901234512 | 32 | 190 | 8.0 | 17.7 | 0.00 | 0.00 | 0.00 | 28 | 1017.4 |
| 20260901234011 | 32 | 229 | 9.7 | 17.7 | 0.00 | 0.00 | 0.00 | 28 | 1017.4 |
| 20260901233512 | 32 | 257 | 6.4 | 17.7 | 0.00 | 0.00 | 0.00 | 28 | 1017.4 |
| 20260901233011 | 32 | 236 | 6.4 | 16.1 | 0.00 | 0.00 | 0.00 | 30 | 1017.4 |
| 20260901232511 | 32 | 261 | 6.4 | 16.1 | 0.00 | 0.00 | 0.00 | 29 | 1017.4 |
| 20260901232011 | 32 | 205 | 6.4 | 16.1 | 0.00 | 0.00 | 0.00 | 29 | 1017.4 |
| 20260901231513 | 32 | 243 | 9.7 | 14.5 | 0.00 | 0.00 | 0.00 | 29 | 1017.5 |
| 20260901231011 | 32 | 244 | 4.8 | 14.5 | 0.00 | 0.00 | 0.00 | 29 | 1017.4 |
| 20260901230511 | 32 | 265 | 9.7 | 14.5 | 0.00 | 0.00 | 0.00 | 29 | 1017.5 |
| 20260901230013 | 32 | 246 | 8.0 | 16.1 | 0.00 | 0.00 | 0.00 | 29 | 1017.4 |
| 20260901225511 | 33 | 258 | 8.0 | 16.1 | 0.00 | 0.00 | 0.00 | 29 | 1017.4 |
| 20260901225010 | 32 | 243 | 9.7 | 17.7 | 0.00 | 0.00 | 0.00 | 30 | 1017.5 |
| 20260901224509 | 32 | 215 | 8.0 | 17.7 | 0.00 | 0.00 | 0.00 | 30 | 1017.5 |
| 20260901224008 | 33 | 261 | 12.9 | 17.7 | 0.00 | 0.00 | 0.00 | 29 | 1017.5 |
| 20260901223509 | 32 | 238 | 9.7 | 17.7 | 0.00 | 0.00 | 0.00 | 30 | 1017.5 |
| 20260901223009 | 32 | 236 | 9.7 | 17.7 | 0.00 | 0.00 | 0.00 | 30 | 1017.6 |
| 20260901222508 | 32 | 267 | 9.7 | 17.7 | 0.00 | 0.00 | 0.00 | 29 | 1017.6 |
| 20260901222008 | 33 | 296 | 6.4 | 11.3 | 0.00 | 0.00 | 0.00 | 28 | 1017.6 |
| 20260901221507 | 32 | 260 | 4.8 | 14.5 | 0.00 | 0.00 | 0.00 | 30 | 1017.6 |
| 20260901221007 | 32 | 245 | 8.0 | 17.7 | 0.00 | 0.00 | 0.00 | 29 | 1017.6 |
| 20260901220506 | 32 | 227 | 11.3 | 17.7 | 0.00 | 0.00 | 0.00 | 29 | 1017.7 |
| 20260901220009 | 32 | 269 | 3.2 | 17.7 | 0.00 | 0.00 | 0.00 | 29 | 1017.7 |
| 20260901215506 | 32 | 244 | 9.7 | 17.7 | 0.00 | 0.00 | 0.00 | 29 | 1017.7 |
| 20260901215006 | 32 | 276 | 8.0 | 16.1 | 0.00 | 0.00 | 0.00 | 29 | 1017.8 |
| 20260901214506 | 32 | 236 | 4.8 | 14.5 | 0.00 | 0.00 | 0.00 | 29 | 1017.9 |
| 20260901214004 | 32 | 317 | 8.0 | 16.1 | 0.00 | 0.00 | 0.00 | 29 | 1018.0 |
| 20260901213504 | 32 | 276 | 8.0 | 16.1 | 0.00 | 0.00 | 0.00 | 29 | 1018.0 |
| 20260901213004 | 32 | 211 | 8.0 | 12.9 | 0.00 | 0.00 | 0.00 | 29 | 1018.1 |
| 20260901212503 | 32 | 157 | 3.2 | 16.1 | 0.00 | 0.00 | 0.00 | 28 | 1018.1 |
| 20260901212004 | 33 | 198 | 6.4 | 16.1 | 0.00 | 0.00 | 0.00 | 28 | 1018.2 |
| 20260901211502 | 32 | 164 | 9.7 | 17.7 | 0.00 | 0.00 | 0.00 | 28 | 1018.2 |
| 20260901211002 | 32 | 246 | 4.8 | 17.7 | 0.00 | 0.00 | 0.00 | 29 | 1018.3 |
| 20260901210502 | 32 | 220 | 9.7 | 16.1 | 0.00 | 0.00 | 0.00 | 29 | 1018.4 |
| 20260901210100 | 32 | 206 | 4.8 | 14.5 | 0.00 | 0.00 | 0.00 | 29 | 1018.4 |
| 20260901205600 | 32 | 240 | 9.7 | 17.7 | 0.00 | 0.00 | 0.00 | 29 | 1018.4 |
| 20260901205103 | 32 | 207 | 9.7 | 17.7 | 0.00 | 0.00 | 0.00 | 29 | 1018.5 |
| 20260901204558 | 33 | 214 | 11.3 | 17.7 | 0.00 | 0.00 | 0.00 | 28 | 1018.5 |
| 20260901204101 | 32 | 165 | 6.4 | 16.1 | 0.00 | 0.00 | 0.00 | 28 | 1018.6 |
| 20260901203559 | 33 | 309 | 4.8 | 16.1 | 0.00 | 0.00 | 0.00 | 28 | 1018.7 |
| 20260901203057 | 33 | 214 | 6.4 | 19.3 | 0.00 | 0.00 | 0.00 | 28 | 1018.8 |
| 20260901202556 | 33 | 138 | 9.7 | 19.3 | 0.00 | 0.00 | 0.00 | 28 | 1018.8 |
| 20260901202055 | 33 | 171 | 4.8 | 16.1 | 0.00 | 0.00 | 0.00 | 27 | 1018.9 |
| 20260901201558 | 33 | 154 | 8.0 | 16.1 | 0.00 | 0.00 | 0.00 | 28 | 1019.0 |
| 20260901201053 | 32 | 162 | 3.2 | 12.9 | 0.00 | 0.00 | 0.00 | 28 | 1019.0 |
| 20260901200551 | 33 | 160 | 0.0 | 14.5 | 0.00 | 0.00 | 0.00 | 28 | 1019.1 |
| 20260901200052 | 32 | 140 | 6.4 | 14.5 | 0.00 | 0.00 | 0.00 | 28 | 1019.1 |
| 20260901195550 | 32 | 123 | 6.4 | 14.5 | 0.00 | 0.00 | 0.00 | 30 | 1019.2 |
| 20260901195050 | 32 | 203 | 4.8 | 14.5 | 0.00 | 0.00 | 0.00 | 28 | 1019.2 |
| 20260901194600 | 32 | 292 | 8.0 | 14.5 | 0.00 | 0.00 | 0.00 | 29 | 1019.2 |
| 20260901194051 | 32 | 276 | 8.0 | 14.5 | 0.00 | 0.00 | 0.00 | 29 | 1019.3 |
| 20260901193548 | 32 | 233 | 3.2 | 14.5 | 0.00 | 0.00 | 0.00 | 29 | 1019.4 |
| 20260901193101 | 32 | 234 | 6.4 | 12.9 | 0.00 | 0.00 | 0.00 | 29 | 1019.5 |
| 20260901192547 | 32 | 227 | 6.4 | 14.5 | 0.00 | 0.00 | 0.00 | 29 | 1019.5 |
| 20260901192046 | 32 | 166 | 9.7 | 14.5 | 0.00 | 0.00 | 0.00 | 29 | 1019.6 |
| 20260901191544 | 32 | 217 | 6.4 | 17.7 | 0.00 | 0.00 | 0.00 | 30 | 1019.6 |
| 20260901191046 | 32 | 184 | 9.7 | 17.7 | 0.00 | 0.00 | 0.00 | 30 | 1019.7 |
| 20260901190543 | 32 | 235 | 8.0 | 14.5 | 0.00 | 0.00 | 0.00 | 31 | 1019.7 |
| 20260901190041 | 31 | 153 | 3.2 | 12.9 | 0.00 | 0.00 | 0.00 | 30 | 1019.7 |
| 20260901185541 | 31 | 334 | 6.4 | 14.5 | 0.00 | 0.00 | 0.00 | 30 | 1019.8 |
| 20260901185039 | 32 | 325 | 8.0 | 14.5 | 0.00 | 0.00 | 0.00 | 30 | 1019.8 |
| 20260901184543 | 32 | 239 | 4.8 | 11.3 | 0.00 | 0.00 | 0.00 | 31 | 1019.9 |
| 20260901184039 | 31 | 342 | 4.8 | 11.3 | 0.00 | 0.00 | 0.00 | 30 | 1019.9 |
| 20260901183539 | 31 | 249 | 1.6 | 9.7 | 0.00 | 0.00 | 0.00 | 31 | 1019.9 |
| 20260901183037 | 31 | 276 | 4.8 | 14.5 | 0.00 | 0.00 | 0.00 | 32 | 1020.0 |
| 20260901182536 | 31 | 192 | 6.4 | 14.5 | 0.00 | 0.00 | 0.00 | 32 | 1020.0 |
| 20260901182036 | 31 | 257 | 1.6 | 11.3 | 0.00 | 0.00 | 0.00 | 30 | 1020.0 |
| 20260901181539 | 31 | 257 | 6.4 | 11.3 | 0.00 | 0.00 | 0.00 | 31 | 1020.1 |
| 20260901181034 | 31 | 194 | 6.4 | 12.9 | 0.00 | 0.00 | 0.00 | 31 | 1020.1 |
| 20260901180534 | 31 | 215 | 8.0 | 12.9 | 0.00 | 0.00 | 0.00 | 32 | 1020.2 |
| 20260901180033 | 30 | 248 | 1.6 | 8.0 | 0.00 | 0.00 | 0.00 | 33 | 1020.2 |
| 20260901175532 | 30 | 291 | 3.2 | 16.1 | 0.00 | 0.00 | 0.00 | 32 | 1020.3 |
| 20260901175031 | 31 | 305 | 4.8 | 11.3 | 0.00 | 0.00 | 0.00 | 32 | 1020.3 |
| 20260901174530 | 30 | 191 | 4.8 | 12.9 | 0.00 | 0.00 | 0.00 | 31 | 1020.4 |
| 20260901174029 | 30 | 180 | 6.4 | 12.9 | 0.00 | 0.00 | 0.00 | 32 | 1020.4 |
| 20260901173529 | 30 | 202 | 0.0 | 6.4 | 0.00 | 0.00 | 0.00 | 34 | 1020.4 |
| 20260901173030 | 30 | 281 | 3.2 | 6.4 | 0.00 | 0.00 | 0.00 | 35 | 1020.4 |
| 20260901172525 | 29 | 230 | 1.6 | 8.0 | 0.00 | 0.00 | 0.00 | 35 | 1020.5 |
| 20260901172026 | 30 | 294 | 1.6 | 9.7 | 0.00 | 0.00 | 0.00 | 35 | 1020.6 |
| 20260901171523 | 30 | 163 | 4.8 | 9.7 | 0.00 | 0.00 | 0.00 | 34 | 1020.5 |
| 20260901171022 | 30 | 237 | 3.2 | 9.7 | 0.00 | 0.00 | 0.00 | 35 | 1020.5 |
| 20260901170521 | 30 | 173 | 3.2 | 9.7 | 0.00 | 0.00 | 0.00 | 36 | 1020.5 |
| 20260901170053 | 29 | 59 | 0.0 | 6.4 | 0.00 | 0.00 | 0.00 | 36 | 1020.5 |
| 20260901165519 | 28 | 196 | 1.6 | 8.0 | 0.00 | 0.00 | 0.00 | 37 | 1020.5 |
| 20260901165018 | 28 | 197 | 3.2 | 8.0 | 0.00 | 0.00 | 0.00 | 38 | 1020.5 |
| 20260901164518 | 28 | 225 | 1.6 | 8.0 | 0.00 | 0.00 | 0.00 | 39 | 1020.5 |
| 20260901164017 | 28 | 89 | 1.6 | 8.0 | 0.00 | 0.00 | 0.00 | 39 | 1020.4 |
| 20260901163515 | 28 | 121 | 1.6 | 8.0 | 0.00 | 0.00 | 0.00 | 40 | 1020.4 |
| 20260901163026 | 28 | 87 | 1.6 | 8.0 | 0.00 | 0.00 | 0.00 | 40 | 1020.4 |
| 20260901162515 | 27 | 259 | 0.0 | 8.0 | 0.00 | 0.00 | 0.00 | 41 | 1020.4 |
| 20260901162117 | 27 | 184 | 1.6 | 9.7 | 0.00 | 0.00 | 0.00 | 42 | 1020.4 |
| 20260901161011 | 26 | 175 | 0.0 | 6.4 | 0.00 | 0.00 | 0.00 | 43 | 1020.4 |
| 20260901155053 | 26 | 62 | 0.0 | 1.6 | 0.00 | 0.00 | 0.00 | 45 | 1020.3 |
| 20260901154559 | 26 | 62 | 0.0 | 0.0 | 0.00 | 0.00 | 0.00 | 46 | 1020.3 |
| 20260901154050 | 26 | 62 | 0.0 | 6.4 | 0.00 | 0.00 | 0.00 | 48 | 1020.3 |
| 20260901153048 | 25 | 62 | 0.0 | 3.2 | 0.00 | 0.00 | 0.00 | 48 | 1020.3 |
| 20260901152547 | 25 | 62 | 0.0 | 3.2 | 0.00 | 0.00 | 0.00 | 51 | 1020.3 |
| 20260901152046 | 25 | 62 | 0.0 | 6.4 | 0.00 | 0.00 | 0.00 | 51 | 1020.4 |